Saskatoon John G. Diefenbaker International Airport

Jump to: basic info | weather | frequencies | runways | comments

Related pages: nearby airports | nearby navaids | notams | map

Basic information (top)

Codes: YXE CYXE
Location: lon 52.170799, lat -106.699997, elev 1,653 ft / 504 m msl
Status: medium_airport
Scheduled airline service: yes
Links: Wikipedia Mobile

Weather (top)

Current conditions (rec'd 2014/09/18 01:00Z):

CYXE 180100Z 12013KT 15SM OVC300 15/09 A2985 RMK CI8 SLP122 DENSITY ALT 2000FT

Airport forecast (rec'd 2014/09/17 00:39Z):

TAF CYXE 172338Z 1800/1824 14012KT P6SM SCT300 
      BECMG 1804/1806 16010KT 
     FM181200 17012KT P6SM BKN200 
     FM181700 19010KT P6SM BKN120 
      BECMG 1819/1821 27012KT 
      RMK NXT FCST BY 180600Z

Frequencies (top)

Verify before use: may be inaccurate or out of date.

A/D: 119.9 MHz (APP/DEP)
A/G: 118.3 MHz (MF SASKATOON RDO)
ATIS: 128.4 MHz (ATIS)
CNTR: 134.325 MHz (WINNIPEG CNTR)
GND: 121.9 MHz (GND)
RCO: 122.5 MHz (EDMONTON RDO)
TWR: 118.3 MHz (TWR)

Runways (top)

09/27: 8,300 x 200 ft (2,530 x 61 m) — paved — lighted

15/33: 6,200 x 150 ft (1,890 x 46 m) — paved — lighted

Latest comments (top)

Timmies: Timmies in the main terminal. Park at ... [read]

More... (top)

See also NOTAMs and nearby airports and navaids, or visit the Saskatoon John G. Diefenbaker International Airport page at the main OurAirports website..